Home > Weather > Kolkata > Past weeks

Flag for India Past Weather in Kolkata, West Bengal, India — Yesterday and Last 2 Weeks

Now
81 °F

Fog.


Feels Like: 87 °F
Forecast: 81 / 100 °F
Wind: 3 mph from South

Location: Calcutta / Dum Dum

Current Time: May 26, 2016 at 6:13:58 AM

Latest Report: May 26, 2016 at 5:30 AM


Visibility: 1 mi

Pressure: 29.53 "Hg

Humidity: 89%

Dew Point: 77 °F

Location of KolkataLocation

Past Weather in Kolkata — Graph

°F

Kolkata Temperature Yesterday

Maximum temperature yesterday: 97 °F (at 12:00 PM)
Minimum temperature yesterday: 73 °F (at 3:30 PM)
Average temperature yesterday: 86 °F

High & Low Weather Summary for the Past Weeks

 TemperatureHumidityPressure
High100 °F (May 12, 3:00 PM)100% (May 19, 5:00 PM)29.83 "Hg (May 19, 5:00 PM)
Low73 °F (May 13, 10:00 PM)35% (May 12, 3:00 PM)29.39 "Hg (May 21, 2:30 AM)
Average87 °F75%29.59 "Hg
* Reported May 11 4:30 AM — May 26 5:00 AM, Kolkata, Weather by CustomWeather, © 2016

Note: Actual official high and low records may vary slightly from our data, if they occured in-between our weather recording intervals... More about our weather records

Advertising

Kolkata Weather History for the Previous 24 Hours

Scroll right to see more
 ConditionsComfort  
Time TempWeatherWind HumidityBarometerVisibility
5:00 AM
Thu, May 26
79 °FFog.3 mph89%29.53 "Hg1 mi
4:30 AM79 °FFog.No wind89%29.50 "Hg1 mi
4:00 AM79 °FFog.3 mph89%29.50 "Hg1 mi
3:30 AM79 °FPartly cloudy.3 mph89%29.47 "Hg1 mi
3:00 AM79 °FPassing clouds.3 mph89%29.50 "Hg1 mi
2:30 AM79 °FPassing clouds.5 mph89%29.50 "Hg1 mi
2:00 AM79 °FPassing clouds.No wind89%29.50 "Hg1 mi
1:30 AM79 °FPassing clouds.No wind89%29.50 "Hg2 mi
1:00 AM79 °FPassing clouds.3 mph89%29.53 "Hg2 mi
12:30 AM79 °FPassing clouds.No wind89%29.53 "Hg2 mi
12:00 AM79 °FPassing clouds.No wind89%29.53 "Hg2 mi
11:30 PM
Wed, May 25
79 °FPassing clouds.3 mph94%29.53 "Hg2 mi
11:00 PM79 °FPassing clouds.3 mph94%29.53 "Hg2 mi
10:30 PM79 °FPassing clouds.3 mph94%29.53 "Hg2 mi
10:00 PM81 °FPassing clouds.3 mph89%29.56 "Hg2 mi
9:30 PM81 °FPassing clouds.No wind89%29.53 "Hg2 mi
9:00 PM81 °FPassing clouds.3 mph89%29.53 "Hg2 mi
8:30 PM81 °FPassing clouds.5 mph89%29.53 "Hg2 mi
8:00 PM81 °FPartly cloudy.6 mph89%29.50 "Hg2 mi
7:30 PM81 °FPartly cloudy.6 mph89%29.47 "Hg2 mi
7:00 PM81 °FPartly cloudy.5 mph89%29.47 "Hg2 mi
6:30 PM82 °FBroken clouds.6 mph84%29.45 "Hg2 mi
6:00 PM82 °FBroken clouds.3 mph84%29.45 "Hg2 mi
5:30 PM82 °FScattered clouds.7 mph84%29.42 "Hg2 mi
5:00 PM82 °FBroken clouds.7 mph89%29.42 "Hg2 mi
4:30 PM81 °FBroken clouds.6 mph89%29.39 "Hg2 mi
4:00 PM79 °FThunderstorms. Broken clouds.9 mph89%29.42 "Hg2 mi
3:30 PM73 °FThunderstorms. More clouds than sun.10 mph94%29.42 "Hg1 mi
3:00 PM77 °FStrong thunderstorms. Broken clouds.23 mph94%29.53 "Hg1 mi
2:30 PM97 °FBroken clouds.8 mph47%29.45 "Hg2 mi
2:00 PM97 °FScattered clouds.10 mph44%29.45 "Hg2 mi
1:30 PM97 °FHaze.12 mph44%29.47 "Hg2 mi
1:00 PM97 °FHaze.12 mph44%29.47 "Hg2 mi
12:30 PM97 °FScattered clouds.12 mph44%29.47 "Hg2 mi
12:00 PM97 °FScattered clouds.12 mph44%29.50 "Hg2 mi
11:30 AM95 °FScattered clouds.9 mph47%29.50 "Hg2 mi
11:00 AM95 °FScattered clouds.7 mph50%29.53 "Hg2 mi
10:30 AM95 °FScattered clouds.7 mph50%29.53 "Hg2 mi
10:00 AM93 °FHaze.8 mph53%29.53 "Hg2 mi
9:30 AM93 °FScattered clouds.7 mph56%29.53 "Hg2 mi
9:00 AM91 °FScattered clouds.6 mph63%29.53 "Hg2 mi
8:30 AM90 °FScattered clouds.5 mph75%29.56 "Hg1 mi
8:00 AM90 °FScattered clouds.3 mph79%29.56 "Hg1 mi
7:30 AM86 °FFog.5 mph89%29.53 "Hg1 mi
7:00 AM86 °FFog.5 mph89%29.53 "Hg1 mi
6:30 AM84 °FFog.3 mph89%29.53 "Hg1 mi
6:00 AM84 °FFog.3 mph89%29.50 "Hg1 mi
Weather by CustomWeather, © 2016

See weather overviewHow to use our weather pages